SCP
0 0 0 0 0 0 0 0 0 0 0 0 0 0 0 0 0 0 0 0 0 0 0 0 0 0 0 0 0 0 0 0 0 0 0 0 0 0 0 0 0 0 0 0 0 0 0 0 0 0 0 0 0 0
0 0 0 0 -0 0 -0 0 0 0 0 0 0 0 0 0 0 0 0 0 0 0 0 0 0 0 0 0 0 0 0 0 0 0 0 0 0 0 -0 -0 0 0 0 0 0 0 0 0 0 0 0 0 0 0
0 0 0 -0 -0 -0 0 0 0 0 0 0 0 0 0 0 0 0 0 0 0 0 0 0 0 0 0 0 0 0 0 0 0 0 0 0 0 0 0 -0 0 0 0 0 0 0 0 0 0 0 0 0 0 0
0 0 0 -0 -0 -0 0 0 0 0 0 0 0 0 0 0 0 0 0 0 0 0 0 0 0 0 0 0 0 0 0 0 0 0 0 -0 -0 -0 -0 0 0 0 0 0 0 0 0 0 0 0 0 0 0 0
0 0 -0 -0 -0 -0 0 0 0 0 0 0 0 0 0 0 0 0 0 0 0 0 0 0 0 0 0 0 0 0 0 0 0 0 0 0 -0 0 0 0 0 0 0 0 0 0 0 0 0 0 0 0 0 0
0 0 0 0 0 0 0 0 0 0 0 0 0 0 0 0 0 0 0 0 0 0 0 0 0 0 0 0 0 0 0 0 0 0 0 0 0 0 0 0 0 0 0 0 0 0 0 0 0 0 0 0 0 0
-0 -0 0 0 0 0 0 0 0 0 0 0 0 0 0 0 0 0 0 0 0 0 0 0 0 0 -0 -0 0 0 0 0 0 0 0 0 0 0 0 0 0 0 0 0 0 0 0 0 0 0 0 0 0 0
-0 -0 -0 -0 -0 0 0 0 0 0 0 0 0 0 0 0 0 0 0 0 0 0 0 0 0 0 0 0 0 0 0 0 0 0 0 0 0 0 0 0 0 0 0 0 0 0 0 0 0 0 0 0 0 0
-0 -0 -0 -0 -0 -0 -0 -0 -0 0 0 0 0 0 0 0 0 0 0 0 0 0 0 0 0 0 0 0 0 0 0 0 0 0 0 0 0 0 0 0 0 0 0 0 0 0 0 0 0 0 0 0 0 0
-0 -0 -0 -0 -0 -0 -0 -0 -0 -0 -0 -0 0 0 0 0 0 0 0 0 0 0 0 0 0 0 0 0 0 -0 -0 -0 0 0 0 0 0 0 0 0 0 0 0 0 0 0 0 0 0 0 0 0 0 0
-0 -0 -0 -0 -0 -0 -0 -0 0 -0 -0 0 0 0 0 0 0 0 0 0 0 0 0 0 0 0 0 0 0 0 -0 -0 -0 0 -0 0 0 0 0 0 0 0 0 0 0 0 0 0 0 0 0 0 0 0
0 -0 -0 -0 -0 0 -0 -0 0 0 0 0 0 0 0 0 0 0 0 0 0 0 0 0 0 0 0 0 0 0 -0 0 -0 -0 -0 0 0 0 0 0 0 0 0 0 0 0 0 0 0 0 0 0 0 0
-0 0 0 0 0 0 0 0 0 0 0 0 0 0 0 0 0 0 0 0 0 0 0 0 0 0 0 0 0 0 0 0 -0 0 -0 -0 0 0 0 0 0 0 0 0 0 0 0 0 0 0 0 0 0 0
-0 -0 0 0 0 0 0 0 0 0 0 0 0 0 0 0 0 0 0 0 0 0 0 0 0 0 0 0 0 0 0 0 0 0 0 0 0 0 0 0 0 0 0 0 0 0 0 0 0 0 0 0 0 0
-0 -0 -0 -0 -0 0 0 0 0 0 0 0 0 0 0 0 0 0 0 0 0 0 0 0 0 0 0 0 0 0 0 0 0 0 -0 0 0 0 0 0 0 0 0 0 0 0 0 0 0 0 0 0 0 0
-0 -0 -0 -0 -0 -0 -0 0 0 0 0 0 0 0 0 0 0 0 0 0 0 0 0 0 0 0 0 0 0 0 0 0 0 0 0 0 0 0 0 0 0 0 0 0 0 0 0 0 0 0 0 0 0 0
0 0 -0 -0 -0 -0 -0 0 -0 -0 0 0 0 0 0 0 0 0 0 0 0 0 0 0 0 0 0 0 0 0 0 0 -0 -0 -0 -0 0 0 0 0 0 0 0 0 0 0 0 0 0 0 0 0 0 0
0 0 -0 -0 0 -0 -0 -0 -0 -0 -0 0 0 0 0 0 0 0 0 0 0 0 0 0 0 0 0 0 0 0 0 0 0 0 0 0 0 0 0 0 0 0 0 0 0 0 0 0 0 0 0 0 0 0
0 0 -0 -0 -0 0 0 0 0 -0 0 0 0 0 0 0 0 0 0 0 0 0 0 0 0 0 0 0 0 0 0 0 0 0 0 0 0 0 0 0 0 0 0 0 0 0 0 0 0 0 0 0 0 0
0 -0 -0 -0 0 0 -0 0 0 0 0 0 0 0 0 0 0 0 0 0 0 0 0 0 0 0 0 0 0 0 0 0 0 0 0 0 0 0 0 0 0 0 0 0 0 0 0 0 0 0 0 0 0 0
0 0 -0 0 0 0 0 0 0 0 0 0 0 0 0 0 -0 0 0 0 0 0 0 0 0 0 0 0 0 0 0 0 0 0 0 0 0 0 0 0 0 0 0 0 0 0 0 0 0 0 0 0 0 0
0 0 0 0 0 0 -0 0 0 0 0 0 0 0 -0 -0 -0 -0 -0 0 0 0 0 0 0 0 0 0 0 -0 0 0 0 0 0 0 0 0 0 0 0 0 0 0 0 0 0 0 0 0 0 0 0 0
0 0 0 0 0 0 0 0 0 0 0 0 0 0 0 0 -0 -0 0 -0 -0 -0 -0 -0 -0 -0 -0 -0 -0 -0 -0 0 -0 0 0 0 0 0 0 0 0 0 0 0 0 0 0 0 0 0 0 0 0 0
0 0 0 0 0 0 0 0 0 0 0 0 0 0 0 0 -0 0 -0 0 0 -0 -0 -0 0 0 0 0 0 0 0 0 0 0 0 0 0 0 0 0 0 0 0 0 0 0 0 0 0 0 0 0 0 0
0 0 0 0 0 0 0 0 0 0 0 0 0 0 0 0 0 0 0 0 0 0 0 0 0 0 0 0 -0 -0 0 0 0 0 0 0 0 0 0 0 0 0 0 0 0 0 0 0 0 0 0 0 0 0
0 0 0 0 0 0 0 0 0 0 0 0 0 0 0 0 0 0 0 0 0 0 0 0 0 0 0 0 0 0 0 0 0 0 0 0 0 0 0 0 0 0 0 0 0 0 0 0 0 0 0 0 0 0
0 0 0 0 0 0 0 0 0 0 0 0 0 0 0 0 0 0 0 0 0 0 0 0 0 0 0 0 0 0 0 0 0 0 0 0 0 0 0 0 0 0 0 0 0 0 0 0 0 0 0 0 0 0
0 0 0 0 0 0 0 0 0 0 0 0 0 0 0 0 0 0 0 0 0 0 0 0 0 0 0 0 0 0 0 0 0 0 0 0 0 0 0 0 0 0 0 0 0 0 0 0 0 0 0 0 0 0
0 0 0 0 0 0 0 0 0 0 0 0 0 0 0 0 0 0 0 0 0 0 0 0 0 0 0 0 0 0 0 0 0 0 0 0 0 0 0 0 0 0 0 0 0 0 0 0 0 0 0 0 0 0
0 0 0 0 0 0 0 0 0 0 0 0 0 0 0 0 0 0 0 0 0 0 0 0 0 0 0 0 0 0 0 0 0 0 0 0 0 0 0 0 0 0 0 0 0 0 0 0 0 0 0 0 0 0
0 0 0 0 0 0 0 0 0 0 0 0 0 0 0 0 0 0 0 0 0 0 0 0 0 0 0 0 0 0 0 0 0 0 0 0 0 0 0 0 0 0 0 0 0 0 0 0 0 0 0 0 0 0
0 0 0 0 0 0 0 0 0 0 0 0 0 0 0 0 0 0 0 0 0 0 0 0 0 0 0 0 0 0 0 0 0 0 0 0 0 0 0 0 0 0 0 0 0 0 0 0 0 0 0 0 0 0
0 0 0 0 0 0 0 0 0 0 0 0 0 0 0 0 0 0 0 0 0 0 0 0 0 0 0 0 0 0 0 0 0 0 0 0 0 0 0 0 0 0 0 0 0 0 0 0 0 0 0 0 0 0
Wind_Speed_500mb
47 48 44 37 62 48 58 56 68 95 97 85 84 77 70 64 50 49 45 33 28 18 25 18 20 13 24 26 10 19 11 7 8 15 8 9 9 13 8 10 11 17 11 20 18 13 28 21 48 44 23 6 9 19
54 60 63 47 49 74 69 76 79 82 72 63 63 60 47 38 28 19 36 30 26 21 17 22 22 20 24 34 30 40 12 12 20 10 10 6 8 6 10 9 8 11 15 9 21 13 4 42 19 8 2 5 7 18
54 67 74 71 63 75 64 69 63 60 56 50 45 41 34 28 28 31 40 36 29 29 21 11 8 23 22 24 33 16 18 13 12 12 5 6 13 6 10 12 6 9 10 6 5 4 12 22 20 22 14 4 7 13
58 62 75 84 85 83 84 80 70 68 60 55 50 45 41 35 32 30 38 32 22 21 10 6 7 8 7 21 26 31 19 12 16 14 9 5 6 8 4 5 3 3 16 10 3 10 1 31 41 32 14 7 9 11
65 66 68 71 81 79 74 68 69 64 57 51 47 44 41 38 36 33 34 25 17 10 11 10 15 7 6 2 14 26 25 23 13 8 6 6 6 4 4 7 9 19 11 8 6 20 18 11 38 25 9 17 15 23
63 67 70 70 69 68 64 59 56 53 51 49 47 47 44 44 42 40 16 18 17 15 13 6 7 10 13 3 7 16 25 23 14 10 6 9 2 12 5 6 17 26 26 21 18 45 32 30 16 19 14 18 15 26
64 65 66 65 64 64 63 60 55 53 49 43 42 41 33 25 20 8 14 10 12 10 7 7 5 4 14 4 1 4 16 15 16 9 6 4 17 16 6 6 38 42 43 27 34 39 7 25 17 17 20 24 21 30
68 64 64 62 61 58 54 54 54 51 51 48 46 46 41 40 39 38 26 15 12 12 12 6 1 3 14 5 2 3 5 8 7 2 9 7 11 15 10 29 40 45 45 8 34 26 20 18 10 13 21 22 29 37
73 66 59 56 54 51 47 43 42 40 40 37 37 34 29 23 16 15 20 23 23 15 10 8 5 4 15 11 6 3 3 1 6 5 6 8 8 12 14 34 38 41 36 47 35 18 21 24 19 18 23 24 28 33
62 58 54 48 44 41 36 33 31 28 22 19 12 10 12 9 10 11 6 7 11 16 13 5 12 4 12 13 9 10 8 2 3 5 13 9 6 10 30 28 30 36 33 35 34 28 34 27 27 22 22 21 25 30
54 48 44 39 34 32 28 23 18 14 10 7 9 10 11 8 6 6 9 14 16 9 21 18 11 6 16 5 3 6 4 4 3 3 6 4 4 14 39 34 30 30 27 23 18 17 16 15 13 12 20 23 25 28
40 41 39 37 34 30 26 24 22 19 24 21 21 18 8 10 10 13 3 8 11 1 22 12 15 12 10 8 4 6 1 5 2 4 7 4 4 26 38 39 33 29 25 20 17 15 14 12 13 15 21 27 28 30
27 24 24 25 28 29 25 22 23 23 19 15 9 9 17 18 20 11 7 8 7 20 21 25 7 15 10 4 4 5 9 3 11 8 5 1 13 32 35 33 25 21 18 16 16 19 20 21 20 23 27 31 33 35
32 25 19 14 17 19 18 13 11 8 4 14 15 15 9 10 5 5 6 6 9 12 35 33 17 7 9 9 4 9 2 6 7 6 4 4 19 27 27 25 24 23 21 21 23 23 24 25 27 27 28 29 29 33
23 19 15 16 16 13 13 11 9 4 13 14 15 8 6 1 5 5 7 12 7 19 22 12 12 6 6 7 6 5 10 7 4 2 1 8 18 21 23 22 21 22 22 22 22 22 22 23 24 25 27 28 29 29
18 11 14 16 15 13 13 14 10 21 14 13 19 7 17 3 9 12 15 10 18 21 6 4 2 7 8 4 11 4 2 2 4 3 3 11 13 18 21 20 21 20 20 21 21 21 20 19 21 23 20 21 22 21
21 29 29 22 15 10 10 14 18 20 16 12 13 23 15 4 7 13 19 19 23 10 3 4 8 2 3 7 7 5 2 1 3 2 5 7 12 17 18 18 18 18 19 19 19 19 17 17 17 14 15 18 17 16
33 25 26 28 34 26 32 30 18 18 18 20 9 12 9 11 20 15 21 19 11 7 7 4 5 11 5 6 4 3 1 0 1 3 5 8 11 15 16 16 17 18 17 17 17 17 15 14 15 16 17 15 15 14
29 20 17 15 18 24 16 19 19 14 14 5 11 16 7 11 22 30 19 7 18 15 8 7 10 4 3 4 3 4 3 4 4 3 5 7 10 13 13 14 15 16 15 16 16 16 16 16 17 18 18 18 18 18
29 27 25 20 19 16 15 16 14 14 9 8 12 10 9 11 18 20 34 19 14 8 18 9 2 2 5 7 7 4 4 6 7 8 6 4 10 12 14 15 16 16 16 16 16 16 15 16 17 18 18 20 20 21
36 39 42 44 54 35 19 13 16 12 7 6 16 13 8 13 19 29 31 27 17 15 9 11 8 8 8 7 7 6 6 6 6 5 5 5 8 9 10 12 13 14 15 16 17 17 20 21 21 22 23 25 27 30
41 45 47 41 23 17 21 26 11 8 7 8 12 15 14 12 20 26 23 28 13 13 8 7 9 10 10 10 9 9 9 8 8 8 9 9 8 7 9 12 12 12 14 16 18 17 18 22 24 27 28 30 32 35
23 27 25 23 13 16 9 18 8 15 8 18 9 8 9 11 22 17 10 9 6 10 8 8 9 10 10 11 11 10 9 8 7 5 3 2 2 4 7 11 15 17 14 15 20 23 24 25 27 30 33 35 39 40
29 16 17 16 24 8 10 14 12 12 8 12 8 8 10 15 25 9 3 1 2 0 2 4 5 6 6 7 7 7 6 4 2 2 2 3 4 8 13 15 16 20 26 25 26 25 27 30 35 38 41 45 47 53
11 25 16 17 20 11 14 12 17 15 6 6 6 7 10 13 6 4 4 7 9 9 9 9 9 8 7 7 7 7 7 7 7 8 11 12 14 15 16 18 19 26 29 29 30 33 34 39 43 46 49 52 56 59
15 20 13 11 11 7 0 5 4 2 0 7 4 8 7 6 6 8 7 9 11 12 11 11 11 13 12 12 12 11 10 11 13 13 14 17 21 27 32 32 33 26 33 35 38 41 44 45 49 52 55 56 59 64
9 5 8 11 6 5 7 4 2 1 1 3 4 7 5 3 8 8 9 10 9 8 9 11 12 13 13 16 15 19 21 22 23 25 24 25 28 33 34 38 39 35 39 42 45 49 53 55 57 59 62 62 62 63
8 4 2 4 1 1 5 3 5 8 7 6 4 2 9 13 9 6 7 10 12 14 15 15 15 15 16 17 22 23 24 26 27 28 28 28 23 29 30 34 37 39 42 44 47 50 53 57 60 62 63 65 65 63
4 3 1 2 3 7 9 11 7 6 6 10 7 6 10 13 14 16 22 24 27 26 24 22 20 21 19 19 18 18 21 23 27 30 32 33 29 28 34 38 40 43 46 49 48 51 53 56 59 62 64 67 67 67
2 4 3 3 5 7 8 14 10 14 19 22 17 24 36 57 49 35 36 36 36 32 26 29 33 31 25 26 23 23 23 25 28 33 39 42 43 45 45 47 48 49 50 51 52 52 52 53 54 55 57 59 61 65
4 4 5 8 9 8 13 19 28 37 40 31 43 49 56 42 62 46 41 43 42 40 39 37 34 31 32 30 29 28 28 24 33 37 42 46 47 48 49 50 51 51 51 51 53 55 56 57 58 60 60 60 60 62
4 4 5 5 7 13 21 9 11 10 11 10 11 15 13 15 16 15 19 23 28 29 25 25 25 21 20 22 25 27 30 32 34 38 44 48 50 51 53 53 51 51 50 50 51 52 53 55 57 58 61 63 64 65
7 7 10 11 9 8 9 18 8 10 12 10 9 8 11 12 18 13 15 20 20 19 15 12 12 16 19 21 23 26 30 34 39 41 45 48 51 53 52 50 49 48 49 50 51 53 54 54 56 56 56 57 60 63
Wind_Direction_500mb
73 75 79 99 123 129 142 134 143 129 131 126 128 131 134 137 130 153 122 128 122 101 136 159 147 142 165 173 147 160 108 205 160 193 189 214 224 219 180 226 177 175 216 202 207 188 247 174 148 164 204 89 106 193
76 77 83 94 108 122 131 135 131 134 132 141 146 145 153 161 154 137 128 135 126 107 128 172 176 172 190 191 187 167 189 173 169 187 211 214 222 220 193 240 182 203 195 210 206 201 274 177 339 191 20 204 232 240
87 79 82 92 107 105 116 127 130 135 137 142 152 159 163 158 158 159 141 133 123 104 93 98 159 205 197 196 197 173 205 184 194 217 257 231 235 166 203 224 87 135 343 226 172 19 341 37 35 24 10 42 238 238
89 84 82 83 88 97 96 105 118 124 125 129 132 136 139 143 142 142 145 138 126 114 110 149 138 155 190 215 211 221 220 201 216 233 229 257 244 210 270 23 89 18 321 332 48 11 22 45 19 0 25 64 103 116
94 95 90 85 86 89 86 88 101 107 112 116 120 119 115 120 123 136 131 116 123 118 128 143 132 101 353 269 229 227 233 243 238 226 203 237 260 211 95 100 34 358 8 348 39 6 316 351 341 10 59 80 105 136
100 96 94 94 96 99 92 92 102 104 105 103 106 114 116 120 127 121 82 84 111 118 117 111 112 57 11 297 279 251 226 235 224 225 227 221 121 336 115 86 40 2 344 333 316 316 301 316 335 27 64 86 117 142
102 98 92 92 92 94 99 104 100 98 100 100 103 106 110 127 149 89 99 128 110 109 97 96 14 63 8 20 248 214 214 222 221 249 236 78 18 28 54 73 347 343 333 330 341 357 61 1 338 24 78 101 130 137
102 97 92 94 94 93 95 96 96 99 101 101 101 103 100 97 94 83 85 100 94 84 72 97 243 59 8 357 348 339 213 208 210 338 45 41 29 44 60 343 343 344 341 315 355 14 336 314 344 68 99 120 140 131
87 87 86 95 97 96 95 94 93 93 96 100 101 99 92 77 56 67 83 71 61 68 98 71 104 212 352 19 318 314 316 102 32 50 45 48 20 47 343 338 340 346 349 325 336 1 22 34 37 81 111 120 122 119
86 92 93 93 94 94 95 96 99 98 95 97 91 69 65 39 84 110 51 22 34 36 50 64 344 349 350 1 355 7 356 342 62 57 83 55 75 125 3 348 344 343 341 353 4 359 1 16 25 50 88 107 117 120
80 85 87 87 86 84 82 79 84 100 94 76 60 67 96 65 79 62 62 43 350 28 12 354 358 318 14 45 282 39 290 324 73 36 93 63 40 356 343 350 358 355 359 6 10 358 348 348 7 52 90 106 116 121
80 82 84 83 82 77 71 64 54 91 83 84 101 104 57 38 60 73 5 1 40 24 340 328 322 333 328 322 28 337 143 33 50 13 75 52 18 344 349 357 4 6 10 17 27 34 44 56 74 85 94 97 105 112
75 80 80 79 75 67 64 72 75 81 83 61 53 56 10 353 43 58 346 338 18 350 4 342 322 342 327 296 301 53 51 36 116 42 83 68 340 347 353 358 8 14 23 34 47 57 63 71 80 88 93 100 105 110
59 70 71 69 60 46 37 50 80 59 70 55 38 27 60 356 36 176 190 217 313 312 326 322 282 321 331 357 320 82 290 37 61 53 360 8 344 349 355 1 8 21 35 44 51 58 64 71 76 83 87 92 96 100
52 58 68 81 74 61 54 63 53 29 58 67 43 49 59 29 47 10 321 300 283 310 326 321 283 297 336 45 19 30 37 59 70 203 18 340 348 354 360 7 16 28 37 46 54 63 66 70 71 76 80 81 83 85
37 74 77 74 66 74 81 42 35 62 63 63 51 63 10 55 355 5 346 341 334 334 325 265 283 54 28 83 49 14 38 118 168 159 332 341 355 4 7 14 21 26 37 46 51 55 59 65 65 62 68 75 77 77
55 67 75 75 75 94 89 70 52 54 53 52 56 32 35 8 299 333 335 329 339 349 26 326 53 182 321 55 28 350 54 187 107 277 325 359 12 15 18 22 24 30 39 46 52 55 57 57 54 52 56 56 52 50
73 77 79 78 72 91 91 58 72 64 66 48 65 19 44 37 13 14 349 357 13 32 24 84 102 46 65 119 259 228 219 170 137 350 20 36 29 23 22 26 29 34 41 47 51 51 51 50 42 39 38 36 32 26
58 70 72 57 96 84 61 46 52 84 64 57 32 20 30 31 26 19 5 32 56 67 98 63 64 77 171 213 158 159 102 88 84 53 57 52 28 16 23 25 25 27 31 32 32 29 28 25 19 16 14 11 5 4
68 72 78 83 80 64 70 48 53 78 82 35 15 11 38 33 24 26 37 59 70 60 48 45 138 159 144 138 154 153 130 108 98 117 108 46 21 20 21 26 31 32 28 23 17 14 12 8 9 7 3 2 1 355
81 81 81 87 63 58 67 47 55 60 61 55 19 14 13 12 19 22 23 25 55 40 63 60 76 95 110 123 126 127 117 105 86 74 46 59 23 39 35 25 24 19 17 18 15 3 357 359 0 359 354 348 346 343
75 76 65 56 54 61 56 31 56 35 29 29 14 17 30 17 2 5 10 37 55 31 54 77 89 105 117 124 125 121 121 112 103 85 61 47 38 24 8 2 5 6 355 349 351 345 339 336 336 334 330 328 327 326
68 59 47 34 64 46 40 22 44 23 53 357 6 32 19 7 358 358 60 54 64 31 64 87 102 111 117 123 126 126 127 128 126 127 112 60 8 348 347 344 343 340 346 337 329 326 324 323 324 322 320 321 319 317
48 47 32 40 29 37 11 33 28 20 37 27 26 7 347 336 350 45 70 38 335 280 144 142 141 147 153 157 159 160 164 172 204 254 266 281 312 324 334 336 335 329 328 330 323 322 320 318 316 316 318 318 318 317
59 14 25 15 22 27 29 6 359 31 34 337 18 347 342 337 28 30 213 217 217 213 201 200 196 196 201 200 208 222 239 246 252 268 300 319 327 330 331 328 330 324 320 320 317 316 316 316 317 320 321 321 320 319
66 18 37 13 7 54 260 40 24 326 39 346 265 313 332 32 33 256 234 214 222 224 221 219 216 222 230 239 249 263 269 274 278 285 294 304 311 315 317 318 322 332 318 320 320 319 320 321 320 320 320 320 320 321
57 346 47 34 46 82 90 93 90 110 328 235 268 7 45 27 257 251 232 245 249 249 248 249 254 260 265 267 266 269 275 280 285 288 295 301 307 310 311 316 321 321 316 319 319 318 319 320 320 321 320 320 322 323
87 56 107 340 298 212 158 161 172 216 227 200 154 285 182 200 238 220 243 275 276 276 273 272 274 274 274 272 274 281 283 288 292 295 300 308 311 316 313 316 316 315 314 315 316 318 318 318 319 319 319 319 322 324
88 18 315 248 257 241 235 212 239 223 211 195 182 248 246 236 247 274 284 279 276 272 269 269 270 267 271 277 277 278 284 290 295 302 308 313 321 319 317 318 316 315 315 315 316 316 316 316 318 320 322 322 322 321
233 322 240 242 203 239 217 214 235 245 240 241 256 272 274 275 284 277 271 267 266 268 269 259 257 265 270 269 272 274 288 294 301 305 310 314 317 319 321 318 316 316 315 314 313 314 315 316 317 317 318 319 323 325
269 262 253 243 258 249 260 273 273 275 270 266 260 255 262 281 287 285 266 258 255 252 249 253 259 263 266 270 279 287 291 297 298 303 307 309 312 314 313 313 314 315 313 313 315 317 320 322 322 322 323 325 328 327
281 268 290 293 284 294 304 295 288 275 270 260 256 240 270 272 271 267 259 234 229 233 238 242 248 262 269 270 274 283 292 296 300 303 306 309 311 314 315 316 316 313 314 315 316 320 322 321 323 327 329 330 329 329
279 263 259 286 298 314 319 318 284 289 264 267 268 266 251 256 258 254 247 224 216 213 222 233 241 254 266 281 290 295 297 301 304 306 308 310 313 317 317 315 313 315 315 318 323 324 326 327 326 328 327 326 326 327
Wind_Speed_850mb
47 48 44 37 62 48 58 56 68 95 97 85 84 77 70 64 50 49 45 33 28 18 25 18 20 13 24 26 10 19 11 7 8 15 8 9 9 13 8 10 11 17 11 20 18 13 28 21 48 44 23 6 9 19
54 60 63 47 49 74 69 76 79 82 72 63 63 60 47 38 28 19 36 30 26 21 17 22 22 20 24 34 30 40 12 12 20 10 10 6 8 6 10 9 8 11 15 9 21 13 4 42 19 8 2 5 7 18
54 67 74 71 63 75 64 69 63 60 56 50 45 41 34 28 28 31 40 36 29 29 21 11 8 23 22 24 33 16 18 13 12 12 5 6 13 6 10 12 6 9 10 6 5 4 12 22 20 22 14 4 7 13
58 62 75 84 85 83 84 80 70 68 60 55 50 45 41 35 32 30 38 32 22 21 10 6 7 8 7 21 26 31 19 12 16 14 9 5 6 8 4 5 3 3 16 10 3 10 1 31 41 32 14 7 9 11
65 66 68 71 81 79 74 68 69 64 57 51 47 44 41 38 36 33 34 25 17 10 11 10 15 7 6 2 14 26 25 23 13 8 6 6 6 4 4 7 9 19 11 8 6 20 18 11 38 25 9 17 15 23
63 67 70 70 69 68 64 59 56 53 51 49 47 47 44 44 42 40 16 18 17 15 13 6 7 10 13 3 7 16 25 23 14 10 6 9 2 12 5 6 17 26 26 21 18 45 32 30 16 19 14 18 15 26
64 65 66 65 64 64 63 60 55 53 49 43 42 41 33 25 20 8 14 10 12 10 7 7 5 4 14 4 1 4 16 15 16 9 6 4 17 16 6 6 38 42 43 27 34 39 7 25 17 17 20 24 21 30
68 64 64 62 61 58 54 54 54 51 51 48 46 46 41 40 39 38 26 15 12 12 12 6 1 3 14 5 2 3 5 8 7 2 9 7 11 15 10 29 40 45 45 8 34 26 20 18 10 13 21 22 29 37
73 66 59 56 54 51 47 43 42 40 40 37 37 34 29 23 16 15 20 23 23 15 10 8 5 4 15 11 6 3 3 1 6 5 6 8 8 12 14 34 38 41 36 47 35 18 21 24 19 18 23 24 28 33
62 58 54 48 44 41 36 33 31 28 22 19 12 10 12 9 10 11 6 7 11 16 13 5 12 4 12 13 9 10 8 2 3 5 13 9 6 10 30 28 30 36 33 35 34 28 34 27 27 22 22 21 25 30
54 48 44 39 34 32 28 23 18 14 10 7 9 10 11 8 6 6 9 14 16 9 21 18 11 6 16 5 3 6 4 4 3 3 6 4 4 14 39 34 30 30 27 23 18 17 16 15 13 12 20 23 25 28
40 41 39 37 34 30 26 24 22 19 24 21 21 18 8 10 10 13 3 8 11 1 22 12 15 12 10 8 4 6 1 5 2 4 7 4 4 26 38 39 33 29 25 20 17 15 14 12 13 15 21 27 28 30
27 24 24 25 28 29 25 22 23 23 19 15 9 9 17 18 20 11 7 8 7 20 21 25 7 15 10 4 4 5 9 3 11 8 5 1 13 32 35 33 25 21 18 16 16 19 20 21 20 23 27 31 33 35
32 25 19 14 17 19 18 13 11 8 4 14 15 15 9 10 5 5 6 6 9 12 35 33 17 7 9 9 4 9 2 6 7 6 4 4 19 27 27 25 24 23 21 21 23 23 24 25 27 27 28 29 29 33
23 19 15 16 16 13 13 11 9 4 13 14 15 8 6 1 5 5 7 12 7 19 22 12 12 6 6 7 6 5 10 7 4 2 1 8 18 21 23 22 21 22 22 22 22 22 22 23 24 25 27 28 29 29
18 11 14 16 15 13 13 14 10 21 14 13 19 7 17 3 9 12 15 10 18 21 6 4 2 7 8 4 11 4 2 2 4 3 3 11 13 18 21 20 21 20 20 21 21 21 20 19 21 23 20 21 22 21
21 29 29 22 15 10 10 14 18 20 16 12 13 23 15 4 7 13 19 19 23 10 3 4 8 2 3 7 7 5 2 1 3 2 5 7 12 17 18 18 18 18 19 19 19 19 17 17 17 14 15 18 17 16
33 25 26 28 34 26 32 30 18 18 18 20 9 12 9 11 20 15 21 19 11 7 7 4 5 11 5 6 4 3 1 0 1 3 5 8 11 15 16 16 17 18 17 17 17 17 15 14 15 16 17 15 15 14
29 20 17 15 18 24 16 19 19 14 14 5 11 16 7 11 22 30 19 7 18 15 8 7 10 4 3 4 3 4 3 4 4 3 5 7 10 13 13 14 15 16 15 16 16 16 16 16 17 18 18 18 18 18
29 27 25 20 19 16 15 16 14 14 9 8 12 10 9 11 18 20 34 19 14 8 18 9 2 2 5 7 7 4 4 6 7 8 6 4 10 12 14 15 16 16 16 16 16 16 15 16 17 18 18 20 20 21
36 39 42 44 54 35 19 13 16 12 7 6 16 13 8 13 19 29 31 27 17 15 9 11 8 8 8 7 7 6 6 6 6 5 5 5 8 9 10 12 13 14 15 16 17 17 20 21 21 22 23 25 27 30
41 45 47 41 23 17 21 26 11 8 7 8 12 15 14 12 20 26 23 28 13 13 8 7 9 10 10 10 9 9 9 8 8 8 9 9 8 7 9 12 12 12 14 16 18 17 18 22 24 27 28 30 32 35
23 27 25 23 13 16 9 18 8 15 8 18 9 8 9 11 22 17 10 9 6 10 8 8 9 10 10 11 11 10 9 8 7 5 3 2 2 4 7 11 15 17 14 15 20 23 24 25 27 30 33 35 39 40
29 16 17 16 24 8 10 14 12 12 8 12 8 8 10 15 25 9 3 1 2 0 2 4 5 6 6 7 7 7 6 4 2 2 2 3 4 8 13 15 16 20 26 25 26 25 27 30 35 38 41 45 47 53
11 25 16 17 20 11 14 12 17 15 6 6 6 7 10 13 6 4 4 7 9 9 9 9 9 8 7 7 7 7 7 7 7 8 11 12 14 15 16 18 19 26 29 29 30 33 34 39 43 46 49 52 56 59
15 20 13 11 11 7 0 5 4 2 0 7 4 8 7 6 6 8 7 9 11 12 11 11 11 13 12 12 12 11 10 11 13 13 14 17 21 27 32 32 33 26 33 35 38 41 44 45 49 52 55 56 59 64
9 5 8 11 6 5 7 4 2 1 1 3 4 7 5 3 8 8 9 10 9 8 9 11 12 13 13 16 15 19 21 22 23 25 24 25 28 33 34 38 39 35 39 42 45 49 53 55 57 59 62 62 62 63
8 4 2 4 1 1 5 3 5 8 7 6 4 2 9 13 9 6 7 10 12 14 15 15 15 15 16 17 22 23 24 26 27 28 28 28 23 29 30 34 37 39 42 44 47 50 53 57 60 62 63 65 65 63
4 3 1 2 3 7 9 11 7 6 6 10 7 6 10 13 14 16 22 24 27 26 24 22 20 21 19 19 18 18 21 23 27 30 32 33 29 28 34 38 40 43 46 49 48 51 53 56 59 62 64 67 67 67
2 4 3 3 5 7 8 14 10 14 19 22 17 24 36 57 49 35 36 36 36 32 26 29 33 31 25 26 23 23 23 25 28 33 39 42 43 45 45 47 48 49 50 51 52 52 52 53 54 55 57 59 61 65
4 4 5 8 9 8 13 19 28 37 40 31 43 49 56 42 62 46 41 43 42 40 39 37 34 31 32 30 29 28 28 24 33 37 42 46 47 48 49 50 51 51 51 51 53 55 56 57 58 60 60 60 60 62
4 4 5 5 7 13 21 9 11 10 11 10 11 15 13 15 16 15 19 23 28 29 25 25 25 21 20 22 25 27 30 32 34 38 44 48 50 51 53 53 51 51 50 50 51 52 53 55 57 58 61 63 64 65
7 7 10 11 9 8 9 18 8 10 12 10 9 8 11 12 18 13 15 20 20 19 15 12 12 16 19 21 23 26 30 34 39 41 45 48 51 53 52 50 49 48 49 50 51 53 54 54 56 56 56 57 60 63
Wind_Direction_850mb
73 75 79 99 123 129 142 134 143 129 131 126 128 131 134 137 130 153 122 128 122 101 136 159 147 142 165 173 147 160 108 205 160 193 189 214 224 219 180 226 177 175 216 202 207 188 247 174 148 164 204 89 106 193
76 77 83 94 108 122 131 135 131 134 132 141 146 145 153 161 154 137 128 135 126 107 128 172 176 172 190 191 187 167 189 173 169 187 211 214 222 220 193 240 182 203 195 210 206 201 274 177 339 191 20 204 232 240
87 79 82 92 107 105 116 127 130 135 137 142 152 159 163 158 158 159 141 133 123 104 93 98 159 205 197 196 197 173 205 184 194 217 257 231 235 166 203 224 87 135 343 226 172 19 341 37 35 24 10 42 238 238
89 84 82 83 88 97 96 105 118 124 125 129 132 136 139 143 142 142 145 138 126 114 110 149 138 155 190 215 211 221 220 201 216 233 229 257 244 210 270 23 89 18 321 332 48 11 22 45 19 0 25 64 103 116
94 95 90 85 86 89 86 88 101 107 112 116 120 119 115 120 123 136 131 116 123 118 128 143 132 101 353 269 229 227 233 243 238 226 203 237 260 211 95 100 34 358 8 348 39 6 316 351 341 10 59 80 105 136
100 96 94 94 96 99 92 92 102 104 105 103 106 114 116 120 127 121 82 84 111 118 117 111 112 57 11 297 279 251 226 235 224 225 227 221 121 336 115 86 40 2 344 333 316 316 301 316 335 27 64 86 117 142
102 98 92 92 92 94 99 104 100 98 100 100 103 106 110 127 149 89 99 128 110 109 97 96 14 63 8 20 248 214 214 222 221 249 236 78 18 28 54 73 347 343 333 330 341 357 61 1 338 24 78 101 130 137
102 97 92 94 94 93 95 96 96 99 101 101 101 103 100 97 94 83 85 100 94 84 72 97 243 59 8 357 348 339 213 208 210 338 45 41 29 44 60 343 343 344 341 315 355 14 336 314 344 68 99 120 140 131
87 87 86 95 97 96 95 94 93 93 96 100 101 99 92 77 56 67 83 71 61 68 98 71 104 212 352 19 318 314 316 102 32 50 45 48 20 47 343 338 340 346 349 325 336 1 22 34 37 81 111 120 122 119
86 92 93 93 94 94 95 96 99 98 95 97 91 69 65 39 84 110 51 22 34 36 50 64 344 349 350 1 355 7 356 342 62 57 83 55 75 125 3 348 344 343 341 353 4 359 1 16 25 50 88 107 117 120
80 85 87 87 86 84 82 79 84 100 94 76 60 67 96 65 79 62 62 43 350 28 12 354 358 318 14 45 282 39 290 324 73 36 93 63 40 356 343 350 358 355 359 6 10 358 348 348 7 52 90 106 116 121
80 82 84 83 82 77 71 64 54 91 83 84 101 104 57 38 60 73 5 1 40 24 340 328 322 333 328 322 28 337 143 33 50 13 75 52 18 344 349 357 4 6 10 17 27 34 44 56 74 85 94 97 105 112
75 80 80 79 75 67 64 72 75 81 83 61 53 56 10 353 43 58 346 338 18 350 4 342 322 342 327 296 301 53 51 36 116 42 83 68 340 347 353 358 8 14 23 34 47 57 63 71 80 88 93 100 105 110
59 70 71 69 60 46 37 50 80 59 70 55 38 27 60 356 36 176 190 217 313 312 326 322 282 321 331 357 320 82 290 37 61 53 360 8 344 349 355 1 8 21 35 44 51 58 64 71 76 83 87 92 96 100
52 58 68 81 74 61 54 63 53 29 58 67 43 49 59 29 47 10 321 300 283 310 326 321 283 297 336 45 19 30 37 59 70 203 18 340 348 354 360 7 16 28 37 46 54 63 66 70 71 76 80 81 83 85
37 74 77 74 66 74 81 42 35 62 63 63 51 63 10 55 355 5 346 341 334 334 325 265 283 54 28 83 49 14 38 118 168 159 332 341 355 4 7 14 21 26 37 46 51 55 59 65 65 62 68 75 77 77
55 67 75 75 75 94 89 70 52 54 53 52 56 32 35 8 299 333 335 329 339 349 26 326 53 182 321 55 28 350 54 187 107 277 325 359 12 15 18 22 24 30 39 46 52 55 57 57 54 52 56 56 52 50
73 77 79 78 72 91 91 58 72 64 66 48 65 19 44 37 13 14 349 357 13 32 24 84 102 46 65 119 259 228 219 170 137 350 20 36 29 23 22 26 29 34 41 47 51 51 51 50 42 39 38 36 32 26
58 70 72 57 96 84 61 46 52 84 64 57 32 20 30 31 26 19 5 32 56 67 98 63 64 77 171 213 158 159 102 88 84 53 57 52 28 16 23 25 25 27 31 32 32 29 28 25 19 16 14 11 5 4
68 72 78 83 80 64 70 48 53 78 82 35 15 11 38 33 24 26 37 59 70 60 48 45 138 159 144 138 154 153 130 108 98 117 108 46 21 20 21 26 31 32 28 23 17 14 12 8 9 7 3 2 1 355
81 81 81 87 63 58 67 47 55 60 61 55 19 14 13 12 19 22 23 25 55 40 63 60 76 95 110 123 126 127 117 105 86 74 46 59 23 39 35 25 24 19 17 18 15 3 357 359 0 359 354 348 346 343
75 76 65 56 54 61 56 31 56 35 29 29 14 17 30 17 2 5 10 37 55 31 54 77 89 105 117 124 125 121 121 112 103 85 61 47 38 24 8 2 5 6 355 349 351 345 339 336 336 334 330 328 327 326
68 59 47 34 64 46 40 22 44 23 53 357 6 32 19 7 358 358 60 54 64 31 64 87 102 111 117 123 126 126 127 128 126 127 112 60 8 348 347 344 343 340 346 337 329 326 324 323 324 322 320 321 319 317
48 47 32 40 29 37 11 33 28 20 37 27 26 7 347 336 350 45 70 38 335 280 144 142 141 147 153 157 159 160 164 172 204 254 266 281 312 324 334 336 335 329 328 330 323 322 320 318 316 316 318 318 318 317
59 14 25 15 22 27 29 6 359 31 34 337 18 347 342 337 28 30 213 217 217 213 201 200 196 196 201 200 208 222 239 246 252 268 300 319 327 330 331 328 330 324 320 320 317 316 316 316 317 320 321 321 320 319
66 18 37 13 7 54 260 40 24 326 39 346 265 313 332 32 33 256 234 214 222 224 221 219 216 222 230 239 249 263 269 274 278 285 294 304 311 315 317 318 322 332 318 320 320 319 320 321 320 320 320 320 320 321
57 346 47 34 46 82 90 93 90 110 328 235 268 7 45 27 257 251 232 245 249 249 248 249 254 260 265 267 266 269 275 280 285 288 295 301 307 310 311 316 321 321 316 319 319 318 319 320 320 321 320 320 322 323
87 56 107 340 298 212 158 161 172 216 227 200 154 285 182 200 238 220 243 275 276 276 273 272 274 274 274 272 274 281 283 288 292 295 300 308 311 316 313 316 316 315 314 315 316 318 318 318 319 319 319 319 322 324
88 18 315 248 257 241 235 212 239 223 211 195 182 248 246 236 247 274 284 279 276 272 269 269 270 267 271 277 277 278 284 290 295 302 308 313 321 319 317 318 316 315 315 315 316 316 316 316 318 320 322 322 322 321
233 322 240 242 203 239 217 214 235 245 240 241 256 272 274 275 284 277 271 267 266 268 269 259 257 265 270 269 272 274 288 294 301 305 310 314 317 319 321 318 316 316 315 314 313 314 315 316 317 317 318 319 323 325
269 262 253 243 258 249 260 273 273 275 270 266 260 255 262 281 287 285 266 258 255 252 249 253 259 263 266 270 279 287 291 297 298 303 307 309 312 314 313 313 314 315 313 313 315 317 320 322 322 322 323 325 328 327
281 268 290 293 284 294 304 295 288 275 270 260 256 240 270 272 271 267 259 234 229 233 238 242 248 262 269 270 274 283 292 296 300 303 306 309 311 314 315 316 316 313 314 315 316 320 322 321 323 327 329 330 329 329
279 263 259 286 298 314 319 318 284 289 264 267 268 266 251 256 258 254 247 224 216 213 222 233 241 254 266 281 290 295 297 301 304 306 308 310 313 317 317 315 313 315 315 318 323 324 326 327 326 328 327 326 326 327